Tracking 32139 objects as of 16-Nov-2025
HD Live streaming from Space Station
objects crossing your sky now

STARLINK-35020

Track STARLINK-35020 now!
10-day predictions
STARLINK-35020 is classified as:


NORAD ID: 65340
Int'l Code: 2025-189T
Perigee: 481.2 km
Apogee: 483.5 km
Inclination: 53.2 °
Period: 94.1 minutes
Semi major axis: 6853 km
RCS: Unknown
Launch date: August 27, 2025
Source: United States (US)
Launch site: AIR FORCE EASTERN TEST RANGE (AFETR)
Your satellite tracking list
Your tracking list is empty




NASA's NSSDC Master Catalog

Two Line Element Set (TLE):
1 65340U 25189T   25318.33335648  .00006534  00000-0  23250-3 0  9990
2 65340  53.1601  22.3050 0001628  81.1325 106.0557 15.30203221  5913
Source of the keplerian elements: AFSPC